Погода в Чжалайноре

Китай     49°28′16″N   117°41′33″E
темп.,
°C
ветер,
м/с
пор.,
м/с
влажн.,
%
обл.,
%
осадки,
мм/ч
давл.,
гПа
погр.,
м
28 февраля, вс
вс2823:00−16зсз515790 0.0 1029428
02:00−19сз513780 0.0 1032324
05:00−21зсз510790 0.0 1034226
08:00−22зсз613730 0.0 1038268
11:00−17зсз610680 0.0 1038542
14:00−16зсз68690 0.0 1037728
17:00−18з36810 0.0 1038169
20:00−21з33790 0.0 103930
1 марта, пн
пн123:00−21з227530 0.0 104120
02:00−23зсз228424 0.0 104120
05:00−23зсз227515 0.0 104020
08:00−22зсз22688 0.0 104020
11:00−17юз12530 0.0 1039299
14:00−14юз22520 0.0 1035701
17:00−17ю33760 0.0 103453
20:00−21ю23870 0.0 103422
2 марта, вт
вт223:00−22ю238865 0.0 103325
02:00−24ююв239448 0.0 103121
05:00−24ююв229973 0.0 102921
08:00−22юв239986 0.1 1027117
11:00−17ююв3488100 0.0 1023432
14:00−13ююв3477100 0.1 1019546
17:00−14в128799 0.0 101720
20:00−19ссв239950 0.0 101827
3 марта, ср
ср323:00−20ссв1210075 0.0 101621
02:00−19св119987 0.0 101425
05:00−18св2296100 0.0 101126
08:00−17св1295100 0.0 101152
11:00−12в1185100 0.0 1010202
14:00−7юз237792 0.0 1009425
17:00−9юз338816 0.0 100949
20:00−11ююз238450 0.0 101025
4 марта, чт
чт423:00−11зюз348896 0.0 101058
02:00−12сз5118698 0.0 1011221
05:00−17зсз6156093 0.0 1015401
08:00−19сз6127894 0.0 1019310
11:00−15сз4672100 0.0 1021379
14:00−15ссз576979 0.0 1023684
17:00−17сз59770 0.0 1027395
20:00−23зсз48820 0.0 1032159